Regional Weather Roundup
Issued by NWS

Home | Current Version | Previous Version | Graphics & Text | Print | Product List | Glossary On
Versions: 1 2 3 4 5 6 7 8 9 10 11 12 13 14 15 16 17 18 19 20 21 22 23 24 25 26 27 28 29 30 31 32 33 34 35 36 37 38 39 40 41 42 43 44 45 46 47 48 49 50
000
ASUS45 KBOU 272310
RWRCO

WEATHER ROUNDUP FOR COLORADO
NATIONAL WEATHER SERVICE PUEBLO CO
500 PM MDT MON JUL 27 2015

NOTE: "FAIR" INDICATES FEW OR NO CLOUDS BELOW 12000 FEET WITH NO
SIGNIFICANT WEATHER AND/OR OBSTRUCTIONS TO VISIBILITY.

COZ001>005-013-030-031-280000-
...NORTHWEST COLORADO...

CITY           SKY/WX    TMP DP  RH WIND       PRES   REMARKS
CRAIG          MOSUNNY   89  27  10 SW28G41   29.96R
HAYDEN         MOSUNNY   82  30  15 SW26G39   29.98F
MEEKER         SUNNY     87  23   9 SW26G41   29.99S
MOUNT WERNER   NOT AVBL
STEAMBOAT SPGS FAIR      80  39  23 SW17      30.02R
WALDEN         FAIR      77  34  20 SW25G31   30.10S
$$

COZ006>008-011-280000-
...WEST CENTRAL VALLEYS...

CITY           SKY/WX    TMP DP  RH WIND       PRES   REMARKS
GRAND JUNCTION SUNNY     94  26   9 W23G32    29.87S
MONTROSE       MOSUNNY   90  34  13 SW17G30   30.01S
EAGLE          NOT AVBL
RIFLE          MOSUNNY   93  33  12 SW20      29.92S
DELTA          NOT AVBL
NUCLA          FAIR      90  28  11 S24G30    30.05F
$$

COZ017>023-064>068-280000-
...SOUTHWEST COLORADO...

CITY           SKY/WX    TMP DP  RH WIND       PRES   REMARKS
DURANGO        MOSUNNY   86  37  17 W13       30.12F
CORTEZ         SUNNY     89  30  12 SW15G26   30.04F
PAGOSA SPRINGS FAIR      79  32  18 SW15G21   30.21S
TELLURIDE      MOSUNNY   73  35  24 SW18G29   30.32R
WOLF CREEK PAS NOT AVBL
$$

COZ009-010-012-014-032>034-037-058>063-280000-
...CENTRAL COLORADO...

CITY           SKY/WX    TMP DP  RH WIND       PRES   REMARKS
ASPEN          MOSUNNY   79  42  26 W5        30.13R
BUENA VISTA    PTSUNNY   83  28  13 W15       30.13R
COPPER MTN     PTSUNNY   61  32  33 W21G28    30.48S
BERTHOUD PASS  FAIR      54  43  66 W24       30.52S
COTTONWOOD PAS MOSUNNY   77  21  12 W7G26     30.29S
GUNNISON       MOSUNNY   81  37  21 W22G31    30.16R
KREMMLING      PTSUNNY   82  32  16 W16G29    30.08R
LEADVILLE      MOSUNNY   69  32  25 SW20G28   30.28S
MONARCH PASS   PTSUNNY   63  37  39 W28G38    30.59R
SALIDA         FAIR      83  46  26 S15G23    30.16F
NIWOT RIDGE    NOT AVBL
SUNLIGHT       MOSUNNY   68  39  34 SW5       30.38S
WILKERSON PASS MOSUNNY   68  37  32 SW8G18    30.43S
$$

COZ069>075-280000-
...SAN LUIS VALLEY/SANGRE DE CRISTO MOUNTAINS...

CITY           SKY/WX    TMP DP  RH WIND       PRES   REMARKS
ALAMOSA        MOSUNNY   83  41  22 W20G26    30.15F
LA VETA PASS   CLOUDY    59  41  51 MISG      30.37F
SAGUACHE       CLOUDY    77  43  29 S5        30.14F
$$

COZ035-036-038>040-280000-
...NORTHERN COLORADO FRONT RANGE...

CITY           SKY/WX    TMP DP  RH WIND       PRES   REMARKS
DENVER INTL AP PTSUNNY   95  41  15 S15       29.83F
DMNS CITY PARK NOT AVBL
AURORA         PTSUNNY   92  46  19 S12       29.86S
FRONT RANGE AP PTSUNNY   95  37  13 S12G23    29.85
ERIE MUNI ARPT FAIR      94  37  13 SW3       29.81S
BOULDER MUN AP FAIR      95  45  17 CALM      29.82S
CENTENNIAL     PTSUNNY   89  45  21 S15G25    29.88S
BROOMFIELD     PTSUNNY   95  41  15 SW5       29.87S
LOVELAND       MOSUNNY   97  50  20 SE10G21     N/A
LONGMONT       FAIR      95  42  16 S3        29.82R
$$

COZ041-046-047-076>085-087-088-280000-
...PIKES PEAK/PALMER DIVIDE AND SOUTHERN FOOTHILLS...

CITY           SKY/WX    TMP DP  RH WIND       PRES   REMARKS
COLO. SPRINGS  PTSUNNY   89  43  20 SW18G26   29.97F
A. F. ACADEMY  MOSUNNY   88  39  17 S13       29.98S
ELLICOTT       FAIR     N/A N/A N/A SW12      29.96F
FALCON         FAIR      84  42  22 S15G23    30.04F
FORT CARSON    MOSUNNY   91  46  21 SW21      29.93F
LIMON          PTSUNNY   88  45  22 S16       29.90S
MONUMENT HILL  MOSUNNY   82  41  23 SW13G23   30.03S
TRINIDAD       PTSUNNY   92  43  18 SW23G30   29.98R THUNDER
$$

COZ042>045-048>051-090-091-280000-
...NORTHEAST COLORADO...

CITY           SKY/WX    TMP DP  RH WIND       PRES   REMARKS
GREELEY ARPT   SUNNY     99  46  16 S8        29.78F
AKRON            N/A    N/A N/A N/A MISG      29.80F
BURLINGTON     MOSUNNY   92  62  36 S17G28    29.83F
WRAY           FAIR      96  60  29 S18G26    29.76F
STERLING       NOT AVBL
HOLYOKE        FAIR      95  63  34 S20G30    29.76S
FORT MORGAN    FAIR      91  52  26 E7        29.80S
$$

COZ086-089-092>099-280000-
...SOUTHEAST COLORADO...

CITY           SKY/WX    TMP DP  RH WIND       PRES   REMARKS
PUEBLO         CLOUDY    96  46  18 S15G22    29.85F
LA JUNTA       CLOUDY    92  56  29 SW13      29.83F
LAMAR          PTSUNNY   93  53  25 W14       29.78S
SPRINGFIELD      N/A     93  52  24 SW15G26   29.88F
$$



USA.gov is the U.S. government's official web portal to all federal, state and local government web resources and services.